Location: Columbia
(38.9520°N, 92.3340°W)
Time: 16:33:53
(UTC-06:00)

Meteor 1-4 Rocket - Visible Passes

Search period start: 09 February 2016 00:00
Search period end: 19 February 2016 00:00
Orbit: 457 x 516 km, 81.2° (Epoch: 09 February)

Date Brightness Start Highest point End Pass type
(mag) Time Alt. Az. Time Alt. Az. Time Alt. Az.
09 Feb 5.4 06:10:43 10° SE 06:13:27 22° E 06:16:14 10° NE visible
10 Feb 6.0 05:47:40 10° ESE 05:49:33 14° E 05:51:26 10° ENE visible
10 Feb 6.2 18:49:52 10° WNW 18:51:40 13° W 18:53:29 10° WSW visible
11 Feb 5.8 18:24:57 10° NW 18:27:47 20° W 18:30:37 10° SW visible
12 Feb 2.4 06:32:50 10° SSW 06:36:20 75° W 06:39:55 10° N visible
13 Feb 3.0 06:08:50 10° S 06:12:18 64° E 06:15:51 10° NNE visible
14 Feb 4.1 05:45:01 10° SSE 05:48:18 37° E 05:51:38 10° NNE visible
15 Feb 5.1 05:21:28 10° SE 05:24:20 23° E 05:27:14 10° NE visible
16 Feb 5.7 04:58:17 10° SE 05:00:23 15° E 05:02:31 10° NE visible
17 Feb 2.9 06:07:52 10° SSW 06:11:14 41° WNW 06:14:41 10° N visible
18 Feb 2.4 05:43:35 10° SSW 05:47:07 69° W 05:50:45 10° N visible
